Regional Weather Roundup
Issued by NWS Albany, NY

Home | Current Version | Previous Version | Text Only | Print | Product List | Glossary On
Versions: 1 2 3 4 5 6 7 8 9 10 11 12 13 14 15 16 17 18 19 20 21 22 23 24 25 26 27
000
ASUS41 KALY 211310
RWRALY

NEW YORK STATE HOURLY WEATHER ROUNDUP
NATIONAL WEATHER SERVICE ALBANY NY
800 AM EST WED FEB 21 2018

NOTE: "FAIR" INDICATES FEW OR NO CLOUDS BELOW 12,000 FEET WITH NO
SIGNIFICANT WEATHER AND/OR NO OBSTRUCTIONS TO VISIBILITY.

NYZ032-033-038>043-046>054-057>066-NYZ062>081-082-084-211400-
EAST


CITY           SKY/WX    TMP DP  RH WIND       PRES   REMARKS
ALBANY         CLOUDY    56  52  86 S15       30.18S
GLENS FALLS    CLOUDY    52  52 100 SW7       30.16F FOG
POUGHKEEPSIE   FOG       50  47  89 CALM      30.26S VSB 1
NEWBURGH       CLOUDY    57  57 100 CALM      30.28S
MONTGOMERY     CLOUDY    57  55  93 SW10      30.25S
WHITE PLAINS   PTSUNNY   53  53 100 S5        30.29R FOG
ISLIP          FOG       49  49 100 SW10      30.32R VSB 1/16
NEW YORK CITY  CLOUDY    58  53  84 S7        30.30R
CENTRAL PARK   CLOUDY    63  58  83 W10G17    30.32R
$$

NYZ005>009-017-018-044>046-055-056-211400-
CENTRAL


CITY           SKY/WX    TMP DP  RH WIND       PRES   REMARKS
FULTON         FAIR      63  52  67 S12       30.06F
SYRACUSE       PTSUNNY   64  53  67 S10       30.08S
ROME           FAIR      53  49  86 CALM      30.13R
ELMIRA         FAIR      40  39  97 CALM      30.17S FOG
BINGHAMTON     FAIR      56  51  84 SW7       30.20R
MONTICELLO     FOG       46  46 100 CALM      30.27S VSB<1/4
$$

NYZ026>034-041>043-087-211400-
NORTH


CITY           SKY/WX    TMP DP  RH WIND       PRES   REMARKS
WATERTOWN      FAIR      51  48  89 W5        30.03F
FORT DRUM      NOT AVBL
OGDENSBURG     PTSUNNY   55  50  84 SW7       30.02S
MASSENA        PTSUNNY   60  53  77 SW10      30.01R
SARANAC LAKE   FAIR      53  51  93 SW7       30.06S
PLATTSBURGH    FAIR      50  47  89 SE8       30.03S
$$

NYZ001>004-010>016-019>021-085-211400-
WEST


CITY           SKY/WX    TMP DP  RH WIND       PRES   REMARKS
NIAGARA FALLS  LGT RAIN  56  50  80 NW10      30.10R
BUFFALO        MOCLDY    56  50  80 NW13      30.09R
DUNKIRK        LGT RAIN  55  50  83 W9        30.12R
JAMESTOWN        N/A    N/A N/A N/A MISG        N/A
WELLSVILLE     FAIR      63  51  65 SW13G18   30.17R
ROCHESTER      FAIR      63  52  67 SW10      30.05R
PENN YAN       FAIR      59  49  69 SW13      30.12S
$$

             KEY
       WCI = WIND CHILL INDEX
       VSB = VISIBILITY
       HX  = HEAT INDEX
$$




USA.gov is the U.S. government's official web portal to all federal, state and local government web resources and services.